Regional Weather Roundup
Issued by NWS Wakefield, VA

Home | Current Version | Previous Version | Graphics & Text | Print | Product List | Glossary On
Versions: 1 2 3 4 5 6 7 8 9 10 11 12 13 14 15 16 17 18 19 20 21 22 23 24 25 26 27 28 29 30 31 32 33 34 35 36 37 38 39 40 41 42 43 44 45 46 47 48 49 50
000
ASUS41 KAKQ 210710
RWRAKQ

REGIONAL WEATHER ROUNDUP
NATIONAL WEATHER SERVICE WAKEFIELD VA
300 AM EDT SUN SEP 21 2014

Note: "fair" indicates few or no clouds below 12,000 feet with no
significant weather and/or obstructions to visibility. * = Denotes
station may not report precipitation (e.g., rain,snow,etc.),
thunder or fog.

VAZ042-051-052>054-056-210800-
NORTHERN VIRGINIA

CITY           SKY/WX    TMP DP  RH WIND       PRES   REMARKS
WASH NATIONAL  MOCLDY    68  61  78 CALM      29.96F
DULLES         PTCLDY    56  56 100 CALM      29.96F
FORT BELVOIR   PTCLDY    58  58  97 E2        29.95F
QUANTICO       PTCLDY    63  59  87 CALM      29.96F
FREDERICKSBRG* PTCLDY    61  61 100 CALM      29.95F FOG
STAFFORD*        N/A     58  58 100 CALM      29.99F FOG
WARRENTON      FOG       54  54 100 CALM      29.95F VSB 3/4
CULPEPER*        N/A     55  54  94 CALM      29.96F FOG
MANASSAS*      CLEAR     57  57 100 CALM      29.95F
LEESBURG*      CLEAR     61  61 100 CALM      29.97F
WINCHESTER     CLEAR     61  55  82 SW3       29.95F
FRONT ROYAL*   SUNNY     59  55  88 S3        29.94F
LURAY*         SUNNY     57  57 100 CALM      29.97F
$$

VAZ048-049-060>072-079>083-210800-
CENTRAL AND SOUTH CENTRAL VIRGINIA...AND NORTH CENTRAL NORTH CAROLINA

CITY           SKY/WX    TMP DP  RH WIND       PRES   REMARKS
RICHMOND       MOCLDY    66  62  87 CALM      29.96F
CHESTERFIELD*  CLOUDY   N/A N/A N/A N3        29.97F
PETERSBURG*    CLOUDY    65  63  92 N5        29.96F
HANOVER        MOCLDY    63  62  97 CALM      29.97F
TAPPAHANNOCK*  MOCLDY    64  61  91 CALM      29.95F
CHARLOTTSVILLE CLEAR     58  56  93 CALM      29.96F
ORANGE*        CLEAR     54  54 100 CALM      29.96F FOG
LOUISA*        FOG       55  55 100 CALM      29.95F VSB 1/2
FARMVILLE*     PTCLDY    59  57  94 CALM      29.94F FOG
CREWE*         MOSUNNY   61  59  92 CALM      29.96F
FORT PICKETT*  CLOUDY    64  62  94 N8        29.95F
LUNENBURG*     PTSUNNY   63  62  96 N8        29.95F
SOUTH HILL*    PTCLDY    64  64 100 N3        30.00F
LAWRENCEVILLE* CLOUDY    65  63  93 CALM      29.94F
ROANOKE RAPIDS CLOUDY    66  64  94 N6        29.93F
RALEIGH        MOCLDY    65  61  87 NE5       29.95F
$$

VAZ088>098-210800-
SOUTHEAST VIRGINIA

CITY           SKY/WX    TMP DP  RH WIND       PRES   REMARKS
NORFOLK        CLOUDY    73  70  90 N10       29.91F
VIRGINIA BEACH CLOUDY    73  71  93 N8        29.89F
NORFOLK NAVAL  CLOUDY    74  70  87 N12       29.92F
WEST POINT*    PTCLDY    67  65  91 CALM      29.95F
NEWPORT NEWS   CLOUDY    72  67  84 N6        29.93F
LANGLEY AFB    CLOUDY    71  71 100 N6        29.91F
FORT EUSTIS    MOCLDY    68 N/A N/A N6        29.91F
WILLIAMSBURG*  MOCLDY    70  66  88 CALM      29.95S
HR EXEC AP*    CLOUDY    70  68  94 N3        29.93F
FRANKLIN*      CLOUDY    68  68 100 N6        29.92F
WAKEFIELD      MOCLDY    67  64  90 N3        29.94F
$$

VAZ020-022-025-037-045-210800-
WEST CENTRAL AND SOUTHWEST VIRGINIA

CITY           SKY/WX    TMP DP  RH WIND       PRES   REMARKS
STAUNTON*      CLEAR     53  50  91 CALM      30.00F FOG
HOT SPRINGS VA CLEAR     55  42  60 SW7       30.08F
LYNCHBURG      CLEAR     56  56 100 CALM      29.99F
DANVILLE       MOCLDY    59  56  89 CALM      29.96F
SOUTH BOSTON*  NOT AVBL
MARTINSVILLE   FOG       54  54 100 NW3       30.00F VSB 1/2
ROANOKE        CLEAR     57  55  93 CALM      30.01F
BLACKSBURG     CLEAR     54  54 100 CALM      30.04F FOG
DUBLIN*        PTCLDY    55  55 100 CALM      30.04F FOG
MARION*        FOG       53  52  96 CALM      30.07F VSB 1/4
HILLSVILLE*    FOG       54  54 100 S3        30.04F VSB 1/4
RICHLANDS*     SUNNY     60  58  91 CALM      30.05F
WISE*          PTCLDY    57  55  94 SW3       30.07S
ABINGDON*      CLEAR     59  57  93 CALM      30.04F
$$

MDZ021>025-VAZ099-100-210800-
SOUTHERN MARYLAND AND THE DELMARVA PENINSULA

CITY           SKY/WX    TMP DP  RH WIND       PRES   REMARKS
PATUXENT RIVER CLOUDY    68  64  87 N5        29.95F
BAY BRIDGE APT   N/A     63  63 100 CALM      29.96F
LEONARDTOWN    MOCLDY    63  61  94 CALM      29.96F
DOVER          CLOUDY    68  68 100 NW6       29.93F
GEORGETOWN     CLOUDY    68  66  93 E9        29.95F
EASTON         MOCLDY    66  66 100 CALM      29.99F
CAMBRIDGE      CLOUDY    70  64  83 N3        29.94F
SALISBURY      CLOUDY    71  67  87 CALM      29.94F
OCEAN CITY     CLOUDY   N/A N/A N/A N3        29.95F HAZE
WALLOPS ISLAND CLOUDY    69  68  96 N7        29.94F FOG
ACCOMACK*      CLOUDY    70  68  94 N3        29.94F FOG
$$

NCZ012>017-030>032-210800-
EASTERN NORTH CAROLINA

CITY           SKY/WX    TMP DP  RH WIND       PRES   REMARKS
ELIZABETH CITY LGT RAIN  71  69  93 N13       29.87F
AHOSKIE*       CLOUDY    67  65  96 N7        29.91F
EDENTON*       LGT RAIN  69  68  97 N8        29.87F
CURRITUCK*     LGT RAIN  72  70  92 N5        29.88F
KILL DEVIL HLS LGT RAIN  72  70  95 E5        29.85F
MANTEO         DRIZZLE   71  70  96 E7        29.85F
CAPE HATTERAS  RAIN      71  71 100 NE5       29.79F FOG
TARBORO*       CLOUDY    68  66  92 N5        29.91F
GOLDSBORO      CLOUDY    69  68  98 VRB2G18   29.86F
WASHINGTON     CLOUDY    69  68  97 N8        29.85F
GREENVILLE     LGT RAIN  68  68 100 N8        29.89F
NEW BERN       RAIN      73  69  87 N10       29.82F
WILMINGTON     LGT RAIN  69  68  96 N13       29.80F
$$

VAZ048-210800-
ELSEWHERE

CITY           SKY/WX    TMP DP  RH WIND       PRES   REMARKS
HARRISBURG PA  PTCLDY    61  58  90 E3        29.95F
BALTIMORE      PTCLDY    59  58  96 CALM      29.95F
ANNAPOLIS      PTCLDY    66  62  87 CALM      29.95F
ANDREWS AFB    PTCLDY    58  58  99 E2        29.96F
WILMINGTON DE  CLEAR     64  62  93 NW5       29.98F
PHILADELPHIA   CLOUDY    69  64  84 N3        29.98F
WILDWOOD NJ*   CLOUDY    68  64  88 NE3       29.96F
ATLANTIC CITY  CLOUDY    65  64  97 NW5       29.96F
HENDERSON NC   PTCLDY    64  61  92 CALM      29.96S
GREENSBORO     PTCLDY    61  58  90 N3        29.97F
ROCKY MOUNT    CLOUDY    68  65  90 N8        29.91F
FAYETTEVILLE   PTCLDY    69  64  84 N12       29.89F
CHARLOTTE      PTCLDY    60  58  92 CALM      29.98F
$$

VAZ100-210800-
MARINE

STATION/POSITION TIME  TEMP    WIND        PRES    WAVE   SWELL
                       AIR SEA DIR/SP/G            HT/PER HT/PER
                 (UTC) (F)     (DEG/KT/KT) (MB)    (FT/S) (FT/S)
44066 TX TWR #4  0700   73 72  140/ 12/ 14 1015.0F   5/ 8   3/ 8
CAPE MAY NJ      0700   69 75   70/  3/  4 1013.9F
LEWES DE         0700   71 72   40/  7/  8 1013.9F
15NM E FENWICK I 0700   73 72              1013.8F   6/ 8
OCEAN-CITY-INLET 0700   70 71   10/  5/  6 1013.7F
WACHAPREAGUE VA  0700   69 74   10/  3/  5 1013.6F
THOMAS POINT MD  0700   68 74   10/  5/  5 1015.3F
GOOSES REEF MD   0700   70     360/  6/  8 1014.9F
COVE POINT MD    0700   69     360/  4/  7 1014.1F
SOLOMONS ISLAND  0700      76                N/A
BISHOPS HEAD MD  0700   69 73   30/  7/  8 1013.4F
PINEY POINT MD   0700           40/  7/  8   N/A
POTOMAC MD       0700   71      20/  8/ 10 1013.4F
CAMBRIDGE MD     0700   68 74   20/  2/  3 1014.0F
LEWISETTA VA     0700   70 74   20/  4/  7 1013.6F
RAPPAHANNOCK LGT 0700           20/ 13/ 15 1014.2F
STINGRAY PT      0700   72      30/ 12/ 14   N/A
YORK RVR RNG VA  0700   71      10/ 11/ 13 1013.0F
YORKTOWN VA      0700   69 76  350/  5/  7 1013.5R
JAMESTOWN VA     0700   67      40/  4/  8   N/A
DOMINION TERM VA 0700   71      30/  4/  9 1013.4F
KIPTOPEKE VA     0700      78   30/  5/  7   N/A
CHES BAY BRIDGE  0700   73 75   10/ 13/ 14 1012.4F
CAPE HENRY VA    0700   73     350/ 12/ 12 1011.6F
CHESAPEAKE LGHT  0600   74     100/  5/  6 1014.4F
WILLOUBY STN VA  0700   72     360/  9/ 11 1011.8F
S CRANEY ISL VA  0700          340/  9/ 11 1012.6F
CAPE HENRY BUOY  0700      75                N/A     5/10   2/11
1ST LANDING BUOY 0700   73      10/ 10/ 12 1012.8F
CAPE CHARLES BUO 0700      74                N/A     6/10   5/10
OFFSHORE WE BUOY 0700      74                N/A     6/ 9   5/ 9
64NM E OF VA BCH 0700   75 77  120/ 14/ 16 1011.4F   7/ 9   5/ 9
DUCK PIER NC     0700   74 74   40/ 13/ 14 1010.4F
44100 DUCK FRF   0700      74                N/A     6/10   2/11
44056 DUCK FRF   0700                        N/A     5/ 9   2/11
OREGON INLET NC  0700   71 73   80/  9/ 13 1010.6F
HATTERAS NC      0700   72 75   50/  6/ 10 1009.2F
DIAMOND SHLS NC  0700   76     110/ 21/ 25 1007.6F  10/ 9   7/ 9
CAPE LOOKOUT NC  0600   73      30/ 18/ 20 1008.1F
$$


USA.gov is the U.S. government's official web portal to all federal, state and local government web resources and services.